Regional Weather Roundup
Issued by NWS

Current Version | Previous Version | Text Only | Print | Product List | Glossary Off
Versions: 1 2 3 4 5 6 7 8 9 10 11 12 13 14 15 16 17 18 19 20 21 22 23 24 25 26 27

000
ASUS44 KJAN 290910
RWRMS

MISSISSIPPI HOURLY WEATHER ROUNDUP
NATIONAL WEATHER SERVICE JACKSON MS
400 AM CDT THU JUN 29 2017

NOTE: "FAIR: INDICATES FEW OR NO CLOUDS BELOW 12,000 FEET WITH NO
SIGNIFICANT WEATHER AND/OR OBSTRUCTIONS TO VISIBILITY.

MSZ001>002-007>008-010>013-018>021-025>028-034>036-291000-
NORTHWEST MISSISSIPPI

CITY           SKY/WX    TMP DP  RH WIND       PRES   REMARKS
BATESVILLE     FAIR      69  68  94 CALM      30.02R
CLARKSDALE       N/A     73  73 100 SE7       29.99S
CLEVELAND      FAIR      73  73 100 SE5       29.98S
GREENWOOD      MOCLDY    74  71  91 S9        29.99S
GREENVILLE     CLOUDY    72  70  93 SE3       29.98S
OXFORD         FAIR      68  66  94 SE5       30.04R
TUNICA           N/A     70  68  94 S7        29.99S
WINONA         FAIR      71  71 100 CALM      30.00S
$$

MSZ003>006-009-014>017-022>024-029>033-037>039-291000-
NORTHEAST MISSISSIPPI

CITY           SKY/WX    TMP DP  RH WIND       PRES   REMARKS
COLUMBUS AFB   MOCLDY    73  72  94 SE7       30.02S
CORINTH        FAIR      70  66  88 SE5       30.03S
GOLDN TRIANGLE CLOUDY    73  66  78 SE7       29.99S
STARKVILLE     CLOUDY    72  70  94 SE5       30.03S
TUPELO         PTCLDY    72  68  87 E3        30.03S
$$

MSZ040-058-291000-
CENTRAL MISSISSIPPI

CITY           SKY/WX    TMP DP  RH WIND       PRES   REMARKS
JACKSON INTL   CLOUDY    73  70  90 SE5       29.99F
JACKSON HAWKNS CLOUDY    73  70  90 SE8       29.99F
MADISON        FAIR      72  68  88 CALM      29.99F
MERIDIAN KEY   CLOUDY    75  73  93 SE3       30.02S
MERIDIAN NAS   CLOUDY    74  70  87 SE3       30.03S
RAYMOND        FAIR      73  72  94 SE5       29.97F
VICKSBURG VKS  MOSUNNY   75  70  83 SE5       29.93S
$$

MSZ059>079-291000-
SOUTH MISSISSIPPI

CITY           SKY/WX    TMP DP  RH WIND       PRES   REMARKS
COLUMBIA       FAIR      72  72 100 CALM      30.00S
HATTIESBURG    CLOUDY    73  72  96 SE5       29.99F
LAUREL         CLOUDY    73  73 100 E5        30.01R
MCCOMB         CLOUDY    73  71  93 SE6       29.97S
NATCHEZ        PTCLDY    73  71  93 SE8       29.96F
PINE BELT      CLOUDY    72  70  94 CALM      30.01S
$$

MSZ080>082-291000-
COASTAL MISSISSIPPI

CITY           SKY/WX    TMP DP  RH WIND       PRES   REMARKS
BILOXI         LGT RAIN  76  72  87 S8        29.97R
PASCAGOULA     MOCLDY    76  69  79 S8        29.98F
GULFPORT       RAIN      76  74  93 MISG      29.97R FOG
$$

LAZ007>009-015>016-023>026-291000-
NORTHEAST LOUISIANA

CITY           SKY/WX    TMP DP  RH WIND       PRES   REMARKS
BASTROP        PTSUNNY   71  71  99 CALM      29.97S
TALLULAH/VBURG CLOUDY    74  70  87 SE7       29.97S
VIDALIA        FAIR      73  72  96 SE7       29.94F
$$




USA.gov is the U.S. government's official web portal to all federal, state and local government web resources and services.